Tracking 29892 objects as of 21-Nov-2024
HD Live streaming from Space Station
objects crossing your sky now

STARLINK-31479

Track STARLINK-31479 now!
10-day predictions
STARLINK-31479 is classified as:


NORAD ID: 59316
Int'l Code: 2024-056W
Perigee: 450.9 km
Apogee: 451.6 km
Inclination: 43.0 °
Period: 93.5 minutes
Semi major axis: 6822 km
RCS: Unknown
Launch date: March 24, 2024
Source: United States (US)
Launch site: AIR FORCE EASTERN TEST RANGE (AFETR)
Your satellite tracking list
Your tracking list is empty




NASA's NSSDC Master Catalog

Two Line Element Set (TLE):
1 59316U 24056W   24325.58520376 -.00005368  00000-0 -12143-3 0  9991
2 59316  43.0002  44.8590 0000535 291.4750  68.6049 15.40678127 38461
Source of the keplerian elements: AFSPC